Location: Cahas Mountain Overlook
(37.0833°N, 80.1000°W)
Time: 16:13:46
(UTC-04:00)

A-11 Canister half - Visible Passes

Search period start: 15 July 2024 00:00
Search period end: 25 July 2024 00:00
Orbit: 1524 x 1684 km, 47.3° (Epoch: 15 July)

Date Brightness Start Highest point End Pass type
(mag) Time Alt. Az. Time Alt. Az. Time Alt. Az.
15 Jul 10.7 05:11:55 10° S 05:19:10 23° SE 05:26:17 10° E visible
16 Jul 10.7 04:50:31 10° S 04:57:27 21° SE 05:04:17 10° E visible
17 Jul 10.8 04:29:08 10° SSE 04:35:45 20° SE 04:42:16 10° E visible
18 Jul 10.8 04:07:48 10° SSE 04:14:02 18° SE 04:20:11 10° E visible
19 Jul 10.8 03:46:31 10° SSE 03:52:20 17° ESE 03:58:05 10° E visible
19 Jul 9.5 05:46:12 10° SW 05:56:07 64° SE 06:05:47 10° ENE visible
20 Jul 10.8 03:25:48 11° SSE 03:30:38 16° ESE 03:35:54 10° E visible
20 Jul 9.5 05:24:29 10° SW 05:34:21 61° SE 05:43:59 10° ENE visible
21 Jul 10.8 03:05:23 12° SE 03:08:56 14° ESE 03:13:39 10° E visible
21 Jul 9.5 05:03:41 13° SSW 05:12:35 58° SE 05:22:11 10° ENE visible
22 Jul 10.8 02:44:56 12° SE 02:47:14 13° ESE 02:51:17 10° E visible
22 Jul 9.5 04:43:13 18° SSW 04:50:50 56° SE 05:00:23 10° ENE visible
23 Jul 10.8 02:24:25 12° SE 02:25:32 12° ESE 02:28:44 10° ESE visible
23 Jul 9.5 04:22:43 23° SSW 04:29:04 53° SE 04:38:34 10° ENE visible
24 Jul 10.9 02:03:52 11° ESE 02:03:52 11° ESE 02:05:43 10° ESE visible
24 Jul 9.5 04:02:09 29° SSW 04:07:18 50° SE 04:16:45 10° ENE visible
